This is the latest recevied weather packets stored in our database for station/object KE4EST. If no packets are shown the sender has not sent any weather packets the latest 10 day(s).
| Time | Temp. | Humidity | Pressure | Rain* | Wind** | Luminosity | Snow |
|---|---|---|---|---|---|---|---|
| 1777990933 | 18.89° C | 63% | 1016.7 hPa | 0 mm | - | 100 W/m² | - |
| 1777990630 | 17.78° C | 67% | 1016.9 hPa | 0 mm | - | 119 W/m² | - |
| 1777990327 | 17.78° C | 69% | 1016.8 hPa | 0 mm | - | 107 W/m² | - |
| 1777990023 | 17.22° C | 70% | 1016.8 hPa | 0 mm | - | 101 W/m² | - |
| 1777989720 | 16.67° C | 71% | 1016.7 hPa | 0 mm | - | 62 W/m² | - |
| 1777989416 | 15.56° C | 72% | 1016.6 hPa | 0 mm | - | 47 W/m² | - |
| 1777989113 | 15.56° C | 75% | 1016.9 hPa | 0 mm | - | 42 W/m² | - |
| 1777988809 | 15.56° C | 77% | 1016.8 hPa | 0 mm | - | 40 W/m² | - |
| 1777988507 | 15.56° C | 77% | 1017 hPa | 0 mm | - | 70 W/m² | - |
| 1777988203 | 15° C | 76% | 1016.8 hPa | 0 mm | - | 75 W/m² | - |
| 1777987899 | 14.44° C | 76% | 1016.6 hPa | 0 mm | - | 98 W/m² | - |
| 1777987595 | 13.89° C | 78% | 1016.7 hPa | 0 mm | - | 129 W/m² | - |
| 1777987293 | 13.33° C | 80% | 1016.6 hPa | 0 mm | - | 91 W/m² | - |
| 1777986990 | 13.33° C | 83% | 1016.5 hPa | 0 mm | - | 68 W/m² | - |
| 1777986688 | 12.78° C | 84% | 1016.3 hPa | 0 mm | - | 64 W/m² | - |
| 1777986386 | 12.22° C | 85% | 1016.7 hPa | 0 mm | - | 61 W/m² | - |
| 1777986084 | 12.22° C | 84% | 1016.5 hPa | 0 mm | - | 56 W/m² | - |
| 1777985780 | 11.67° C | 84% | 1016.3 hPa | 0 mm | - | 57 W/m² | - |
| 1777985477 | 11.67° C | 89% | 1016.3 hPa | 0 mm | - | 57 W/m² | - |
| 1777985174 | 11.11° C | 90% | 1016.3 hPa | 0 mm | - | 54 W/m² | - |
| 1777984870 | 10.56° C | 92% | 1016.3 hPa | 0 mm | - | 50 W/m² | - |
| 1777984566 | 10.56° C | 94% | 1016.5 hPa | 0 mm | - | 48 W/m² | - |
| 1777984263 | 10° C | 96% | 1016.3 hPa | 0 mm | - | 45 W/m² | - |
| 1777983959 | 10° C | 97% | 1016.1 hPa | 0 mm | - | 43 W/m² | - |
| 1777983657 | 9.44° C | 97% | 1016.2 hPa | 0 mm | - | 40 W/m² | - |
* Rain latest hour (hover to see other rain measurements)
** Current wind speed in m/s (hover to see current wind gust speed)